Location: Nashville
(36.1660°N, 86.7840°W)
Time: 07:59:03
(UTC-05:00)

EO-88 - Pass Details

Date: 22 May 2022
Orbit: 457 x 464 km, 97.3° (Epoch: 27 June)

Event Time Altitude Azimuth Distance (km) Brightness Sun altitude
Exits shadow 22:20:54 48° 353° (N) 611 ? -24.0°
Drops below altitude 10° 22:23:31 10° 350° (N) 1,620 ? -24.3°
Sets 22:25:34 0° 350° (N) 2,502 ? -24.5°
